Location: Maiden
(35.5760°N, 81.2120°W)
Time: 11:20:09
(UTC-04:00)

Vanguard 2 - Pass Details

Date: 06 August 2021
Orbit: 552 x 2938 km, 32.9° (Epoch: 18 September)

Event Time Altitude Azimuth Distance (km) Brightness Sun altitude
Exits shadow 05:45:38 14° 254° (WSW) 1,590 8.5 -10.3°
Maximum altitude 05:48:56 60° 176° (S) 649 7.0 -9.7°
Drops below altitude 10° 05:53:20 10° 96° (E) 2,064 10.7 -8.9°
Sets 05:56:02 0° 93° (E) 3,189 11.9 -8.5°
